Regional Weather Roundup
Issued by NWS

Home | Current Version | Previous Version | Graphics & Text | Print | Product List | Glossary On
Versions: 1 2 3 4 5 6 7 8 9 10 11 12 13 14 15 16 17 18 19 20 21 22 23 24 25 26 27 28 29 30 31 32 33 34 35 36 37 38 39 40 41 42 43 44 45 46 47 48 49 50
000
ASUS43 KBIS 221502
RWRND

NORTH DAKOTA REGIONAL WEATHER ROUNDUP
NATIONAL WEATHER SERVICE BISMARCK ND
900 AM CST MON JAN 22 2018

NOTE: "FAIR" INDICATES FEW OR NO CLOUDS BELOW 12,000 FEET WITH NO
SIGNIFICANT WEATHER AND/OR OBSTRUCTIONS TO VISIBILITY.


NDZ001>003-009>011-017-221600-
NORTHWEST NORTH DAKOTA

CITY           SKY/WX    TMP DP  RH WIND       PRES   REMARKS
WILLISTON      CLEAR      4   1  88 CALM      30.03R
MINOT          FOG       10   8  92 CALM      30.04R VSB 1/4
MINOT AFB      FOG       11   8  87 CALM      30.04R VSB 1/4
$$

NDZ018>021-031>035-040>046-221600-
SOUTHWEST NORTH DAKOTA

CITY           SKY/WX    TMP DP  RH WIND       PRES   REMARKS
BISMARCK       FOG       19  17  92 W6        30.05R VSB 1/4 WCI  11
DICKINSON      CLEAR     13   9  84 W9        29.97R WCI   1
GARRISON         N/A      5   2  87 VRB3      30.02R
HETTINGER ARPT CLEAR     10   7  87 W5        29.99R WCI   2
$$

NDZ004>008-012>016-024-026-027-054-221600-
NORTHEAST NORTH DAKOTA

CITY           SKY/WX    TMP DP  RH WIND       PRES   REMARKS
GRAND FORKS    CLOUDY    25  20  81 NE13      30.10R WCI  14
GRND FRKS AFB  CLOUDY    25  21  86 E12       30.11R WCI  14
DEVILS LAKE    CLOUDY    22  21  96 NE10      30.07R WCI  11
$$

NDZ022-023-025-028>030-036>039-047>053-221600-
SOUTHEAST NORTH DAKOTA

CITY           SKY/WX    TMP DP  RH WIND       PRES   REMARKS
FARGO          CLOUDY    26  24  92 N15       30.02R WCI  14
JAMESTOWN      CLOUDY    22  20  92 NE13      30.04R WCI  10
$$





USA.gov is the U.S. government's official web portal to all federal, state and local government web resources and services.